Weather History for Meacham, OR

Change the Weather History Date:

Sunday, May 12, 2013

  Actual Average Record
Temperature  
Mean Temperature 62 °F -  
Max Temperature 77 °F 56 °F 84 °F (2001)
Min Temperature 46 °F 30 °F 25 °F (2012)
Degree Days  
Heating Degree Days 4    
Growing Degree Days 12 (Base 50)    
Moisture  
Dew Point 49 °F    
Average Humidity 66    
Maximum Humidity 93    
Minimum Humidity 41    
Precipitation  
Precipitation 0.00 in - - ()
Sea Level Pressure  
Sea Level Pressure 30.08 in    
Wind  
Wind Speed 1 mph (NNE)    
Max Wind Speed 5 mph    
Max Gust Speed -    
Visibility 10 miles    
Events      
Averages and records for this station are not official NWS values.
T = Trace of Precipitation, MM = Missing Value Source: NWS Daily Summary

Daily Weather History Graph

Daily Weather History Graph

Search for Another Location

Airport:

Trip Planner

Search our weather history database for the weather conditions in past years. The results will help you decide how hot, cold, wet, or windy it might be!

Date:

Astronomy

May. 12, 2013 Rise Set
Actual Time 5:26 AM PDT 8:14 PM PDT
Civil Twilight 4:51 AM PDT 8:48 PM PDT
Nautical Twilight 4:08 AM PDT 9:32 PM PDT
Astronomical Twilight 3:17 AM PDT 10:24 PM PDT
Moon 7:23 AM PDT (5/12) 10:46 PM PDT (5/12)
Length of Visible Light 15h 57m
Length of Day
14h 48m
Waxing Crescent, 7% of the Moon is Illuminated
May 12
Waxing Crescent
May 17
First Quarter
May 24
Full
May 31
Last Quarter
Jun 8
New

Hourly Weather History & Observations

Time (PDT) Temp. Dew Point Humidity Pressure Visibility Wind Dir Wind Speed Gust Speed Precip Events Conditions
12:56 AM 53.1 °F 48.0 °F 83% 30.08 in 10.0 mi Calm Calm - N/A   Clear
1:56 AM 52.0 °F 46.9 °F 83% 30.08 in 10.0 mi Calm Calm - N/A   Clear
2:56 AM 50.0 °F 46.9 °F 89% 30.07 in 10.0 mi Calm Calm - N/A   Clear
3:56 AM 48.9 °F 46.0 °F 90% 30.08 in 10.0 mi Calm Calm - N/A   Clear
4:56 AM 48.0 °F 45.0 °F 89% 30.09 in 10.0 mi Calm Calm - N/A   Clear
5:56 AM 46.9 °F 45.0 °F 93% 30.09 in 10.0 mi Calm Calm - N/A   Clear
6:56 AM 50.0 °F 46.0 °F 86% 30.09 in 10.0 mi Calm Calm - N/A   Clear
7:56 AM 55.9 °F 48.9 °F 77% 30.10 in 10.0 mi Calm Calm - N/A   Clear
8:56 AM 64.9 °F 51.1 °F 61% 30.10 in 10.0 mi Calm Calm - N/A   Clear
9:56 AM 69.1 °F 46.9 °F 45% 30.09 in 10.0 mi NNE 4.6 mph - N/A   Clear
10:56 AM 70.0 °F 48.0 °F 46% 30.09 in 10.0 mi Calm Calm - N/A   Clear
11:56 AM 73.0 °F 48.9 °F 42% 30.09 in 10.0 mi Calm Calm - N/A   Clear
12:56 PM 75.0 °F 50.0 °F 41% 30.08 in 10.0 mi Calm Calm - N/A   Clear
1:56 PM 77.0 °F 52.0 °F 42% 30.06 in 10.0 mi Calm Calm - N/A   Clear
2:56 PM 73.0 °F 51.1 °F 46% 30.06 in 10.0 mi Variable 3.5 mph - N/A   Clear
3:56 PM 73.9 °F 51.1 °F 45% 30.05 in 10.0 mi Variable 3.5 mph - N/A   Clear
4:56 PM 72.0 °F 52.0 °F 49% 30.06 in 10.0 mi Variable 4.6 mph - N/A   Clear
5:56 PM 70.0 °F 51.1 °F 51% 30.06 in 10.0 mi Variable 3.5 mph - N/A   Scattered Clouds
6:56 PM 68.0 °F 51.1 °F 55% 30.05 in 10.0 mi Calm Calm - N/A   Scattered Clouds
7:56 PM 64.0 °F 48.9 °F 58% 30.05 in 10.0 mi Calm Calm - N/A   Clear
8:56 PM 60.1 °F 50.0 °F 69% 30.05 in 10.0 mi Calm Calm - N/A   Overcast
9:56 PM 55.9 °F 48.9 °F 77% 30.07 in 10.0 mi Calm Calm - N/A   Clear
10:56 PM 53.1 °F 48.0 °F 83% 30.08 in 10.0 mi Calm Calm - N/A   Clear
11:56 PM 50.0 °F 46.0 °F 86% 30.08 in 10.0 mi Calm Calm - N/A   Clear